This demonstration page uses our WeatherBlox Daily Observations layout. Learn more.

Left ArrowRight Arrow

41.55636, -103.73856

Hourly Observations for May 28, 2022

Temp ( °F °C ) Dew Point ( °F °C ) Humidity (%) Winds ( mph kmh ) Pressure ( in mb ) Visibility ( mi km ) Precip ( " mm )
12:58 am 00:58 Clear 60 15.6 38 3.1 43 43 S 8 13 29.65 1004 10 16 0.00 0.00
1:58 am 01:58 Clear 57 14.1 37 3 47 47 Calm 29.65 1004 10 16 0.00 0.00
2:58 am 02:58 Clear 55 12.8 37 2.9 51 51 S 3 6 29.63 1003 10 16 0.00 0.00
3:58 am 03:58 Clear 57 13.8 36 2.1 45 45 S 5 7 29.62 1003 10 16 0.00 0.00
4:58 am 04:58 Clear 55 12.8 38 3.2 52 52 SSW 6 9 29.62 1003 10 16 0.00 0.00
5:58 am 05:58 Mostly Sunny 50 10.2 38 3.5 63 63 SW 5 7 29.60 1002 10 16 0.00 0.00
6:58 am 06:58 Sunny 60 15.5 44 6.5 55 55 E 8 13 29.59 1002 10 16 0.00 0.00
7:58 am 07:58 Sunny 59 14.8 44 6.9 59 59 ENE 3 6 29.59 1002 10 16 0.00 0.00
8:58 am 08:58 Sunny 67 19.4 44 6.5 43 43 Calm 29.57 1001 10 16 0.00 0.00
9:58 am 09:58 Sunny 76 24.4 38 3.6 26 26 S 12 19 29.50 999 10 16 0.00 0.00
10:58 am 10:58 Sunny 75 23.8 40 4.7 29 29 S 8 13 29.49 999 10 16 0.00 0.00
11:58 am 11:58 Mostly Sunny 76 24.7 42 5.5 29 29 SSE 8 13 29.46 998 10 16 0.00 0.00
12:58 pm 12:58 Sunny 80 26.5 43 6 27 27 SE 9 15 29.42 996 10 16 0.00 0.00
1:58 pm 13:58 Partly Cloudy 78 25.8 44 6.4 29 29 NNE 6 9 29.43 997 10 16 0.00 0.00
2:58 pm 14:58 Sunny 82 27.7 38 3.4 21 21 SSE 6 9 29.40 996 10 16 0.00 0.00
3:58 pm 15:58 Mostly Cloudy 79 26.2 29 -1.6 16 16 W 14 22 29.42 996 10 16 0.00 0.00
4:58 pm 16:58 Mostly Sunny 79 26 32 -0.2 18 18 WNW 8 13 29.41 996 10 16 0.00 0.00
5:58 pm 17:58 Mostly Sunny 76 24.6 32 0.1 20 20 NW 9 15 29.40 996 10 16 0.00 0.00
6:58 pm 18:58 Mostly Sunny 71 21.9 39 4 31 31 SSW 7 11 29.39 995 10 16 0.00 0.00
7:58 pm 19:58 Sunny 73 22.5 30 -0.9 21 21 WSW 20 31 29.39 995 10 16 0.00 0.00
8:58 pm 20:58 Partly Cloudy 71 21.7 29 -1.6 21 21 WSW 15 24 29.37 995 10 16 0.00 0.00
9:58 pm 21:58 Cloudy 68 19.9 33 0.8 28 28 WNW 16 26 29.41 996 10 16 0.00 0.00
10:58 pm 22:58 Mostly Clear 60 15.3 38 3.1 44 44 W 8 13 29.43 997 10 16 0.00 0.00
11:58 pm 23:58 Mostly Clear 55 13 38 3.1 51 51 W 6 9 29.41 996 10 16 0.00 0.00

Powered by AerisWeather